Hourly Data

Hourly Data Report for March 04, 2012

All times are specified in Local Standard Time (LST). Add 1 hour to adjust for Daylight Saving Time where and when it is observed.

Metadata including Station Name, Province, Latitude, Longitude, Elevation, Climate ID, WMO ID, TC ID
CHARLOTTETOWN A
PRINCE EDWARD ISLAND
Latitude: 46°17'19.020" N Longitude: 63°07'43.070" W Elevation: 48.80 m
Climate ID: 8300300 WMO ID: 71706 TC ID: YYG
Hourly Data Report for March 4, 2012
Temp Definition
°C

Dew Point Temp Definition
°C

Rel Hum Definition
%

Wind Dir Definition
10's deg
Wind Spd Definition
km/h

Visibility Definition
km

Stn Press Definition
kPa

Hmdx Definition

Wind Chill Definition

Weather Definition

TIME
00:00 4.5 2.9 89 27 26 16.1 98.53 Rain
01:00 2.9 0.4 84 27 17 24.1 98.67 Mostly Cloudy
02:00 2.0 -0.5 83 25 9 24.1 98.81 Mainly Clear
03:00 1.6 -0.8 84 25 13 24.1 98.85 Mainly Clear
04:00 0.9 -1.1 86 23 11 24.1 98.94 Mainly Clear
05:00 1.3 -0.9 85 24 17 24.1 99.04 Mainly Clear
06:00 1.8 -0.9 82 23 24 24.1 99.13 Mainly Clear
07:00 1.5 -1.2 82 23 20 24.1 99.18 Mainly Clear
08:00 1.8 -2.0 76 24 19 24.1 99.31 Mainly Clear
09:00 2.0 -2.5 72 24 26 24.1 99.39 Mainly Clear
10:00 2.3 -2.7 69 25 20 24.1 99.46 Mostly Cloudy
11:00 2.4 -2.9 68 24 19 24.1 99.50 Mostly Cloudy
12:00 2.9 -3.5 63 25 17 24.1 99.56 Mostly Cloudy
13:00 3.3 -4.4 57 26 17 24.1 99.51 Mostly Cloudy
14:00 3.2 -4.2 58 25 19 24.1 99.52 Mostly Cloudy
15:00 3.1 -4.3 58 24 15 24.1 99.48 Mostly Cloudy
16:00 3.1 -4.1 59 25 7 24.1 99.59 Cloudy
17:00 2.7 -4.1 61 22 4 24.1 99.51 Cloudy
18:00 2.2 -4.0 64 27 4 24.1 99.58 Cloudy
19:00 2.0 -4.2 63 24 4 24.1 99.65 Cloudy
20:00 0.8 -3.7 72 14 6 24.1 99.62 Cloudy
21:00 0.7 -3.7 72 33 4 24.1 99.56 Cloudy
22:00 1.7 -4.9 62 27 4 24.1 99.49 Cloudy
23:00 1.4 -4.0 67   0 24.1 99.46 Snow Showers

Notes on Data Quality.

Legend
  • M = Missing
  • E = Estimated
  • NA = Not Available
  • ‡ = Partner data that is not subject to review by the National Climate Archives